Location: Unspecified
(44.0704°N, 88.6889°W)
Time: 04:45:39
(UTC+02:00)

Okean 3 - Pass Details

Date: 03 October 2020
Orbit: 575 x 602 km, 82.5° (Epoch: 20 October)

Event Time Altitude Azimuth Distance (km) Brightness Sun altitude
Rises 12:13:37 0° 181° (S) 2,832 6.8 -19.0°
Reaches altitude 10° 12:15:50 10° 179° (S) 1,932 6.0 -18.6°
Maximum altitude 12:20:05 71° 96° (E) 634 3.7 -17.9°
Drops below altitude 10° 12:24:20 10° 13° (NNE) 1,934 6.4 -17.1°
Sets 12:26:32 0° 11° (N) 2,836 7.2 -16.7°
